Starlink 30381

operational
NORAD ID: 57785 Int'l Des: 2023-134 Owner: SPXS Country: US Constellation: starlink
LEOCIRCULAR

About Starlink 30381

Description loading...

Live Position

Loading 3D Globe...

Upcoming Passes

Altitude History

Altitude vs Time

uPlot chart will show altitude changes over time

Two-Line Element Set

1 57785U 23134Q 25259.90507718 -.00000556 00000-0 -26119-4 0 9996
2 57785 43.0035 61.3574 0001086 269.6523 90.4194 15.02525743113335
Epoch: Sep 16, 2025 • Age: 29 hours

Current Status

Altitude 558.8 km
Velocity 7.58 km/s
Sub-Earth Point -0.36°S, 20.63°E
Launch Date Sep 4, 2023
Age 2 years
Type internet

Technical Details

Classification Payload
Mass 730.00 kg
Dry Mass 700.00 kg
Total Mass 730.00 kg
Length 0.30 m
Diameter 4.10 m
Span 29.00 m
Shape Box + pan
Manufacturer SPXS
Bus Type Starlink V2M
Phase Status In Orbit
Owner/State SPXS/US

Large Constellations

Loading constellations...